| time (UTC) | temp C | wind direction | speed KPH | gust KPH | rain 1hr cm | rain 24hr cm | rain mn cm | humidity % | barometer mb |
| 20260502170344 | 4 | 309 | 6.4 | 9.7 | 0.00 | 0.25 | 0.00 | 100 | 1123.2 |
| 20260502164343 | 5 | 334 | 1.6 | 3.2 | 0.00 | 0.30 | 0.00 | 100 | 1123.2 |
| 20260502163343 | 5 | 302 | 4.8 | 12.9 | 0.00 | 0.30 | 0.00 | 100 | 1123.2 |
| 20260502162442 | 5 | 337 | 1.6 | 4.8 | 0.00 | 0.33 | 0.00 | 100 | 1123.2 |
| 20260502162346 | 5 | 340 | 4.8 | 9.7 | 0.00 | 0.33 | 0.00 | 100 | 1123.1 |
| 20260502161443 | 5 | 344 | 4.8 | 9.7 | 0.00 | 0.36 | 0.00 | 100 | 1123.2 |
| 20260502160446 | 5 | 350 | 6.4 | 11.3 | 0.00 | 0.38 | 0.00 | 100 | 1123.3 |
| 20260502151825 | 5 | 342 | 6.4 | 9.7 | 0.00 | 0.38 | 0.00 | 100 | 1123.2 |
| 20260502130243 | 2 | 328 | 4.8 | 11.3 | 0.00 | 0.64 | 0.00 | 100 | 1121.8 |
| 20260502123243 | 2 | 319 | 4.8 | 9.7 | 0.00 | 0.66 | 0.00 | 100 | 1121.5 |
| 20260502120424 | 1 | 288 | 6.4 | 9.7 | 0.00 | 0.66 | 0.00 | 100 | 1121.4 |
| 20260502115443 | 1 | 290 | 4.8 | 8.0 | 0.00 | 0.66 | 0.00 | 100 | 1121.4 |
| 20260502114443 | 1 | 289 | 6.4 | 11.3 | 0.00 | 0.66 | 0.00 | 100 | 1121.3 |
| 20260502113541 | 1 | 291 | 6.4 | 11.3 | 0.00 | 0.66 | 0.00 | 100 | 1121.3 |
| 20260502112445 | 1 | 273 | 4.8 | 6.4 | 0.00 | 0.69 | 0.00 | 100 | 1121.1 |
| 20260502111542 | 0 | 264 | 3.2 | 9.7 | 0.00 | 0.69 | 0.00 | 100 | 1121.1 |
| 20260502110641 | 0 | 273 | 3.2 | 4.8 | 0.00 | 0.69 | 0.00 | 100 | 1120.7 |
| 20260502104641 | 0 | 292 | 3.2 | 4.8 | 0.00 | 0.69 | 0.00 | 100 | 1120.8 |
| 20260502101642 | 1 | 253 | 3.2 | 4.8 | 0.00 | 0.71 | 0.00 | 100 | 1120.7 |
| 20260502100725 | 1 | 276 | 4.8 | 6.4 | 0.00 | 0.71 | 0.00 | 100 | 1120.7 |
| 20260502090742 | 2 | 271 | 6.4 | 9.7 | 0.00 | 0.71 | 0.00 | 100 | 1120.5 |
| 20260502071244 | 3 | 247 | 3.2 | 4.8 | 0.00 | 0.71 | 0.00 | 100 | 1120.4 |
| 20260502070242 | 3 | 258 | 3.2 | 4.8 | 0.00 | 0.71 | 0.00 | 100 | 1120.3 |
| 20260502065342 | 3 | 276 | 4.8 | 6.4 | 0.00 | 0.71 | 0.00 | 100 | 1120.5 |
| 20260502064342 | 3 | 225 | 3.2 | 4.8 | 0.00 | 0.71 | 0.00 | 100 | 1120.8 |
| 20260502063342 | 3 | 247 | 3.2 | 4.8 | 0.00 | 0.71 | 0.00 | 100 | 1120.7 |
| 20260502062343 | 3 | 232 | 1.6 | 8.0 | 0.00 | 0.71 | 0.00 | 100 | 1120.7 |
| 20260502061341 | 3 | 192 | 0.0 | 4.8 | 0.00 | 0.71 | 0.00 | 100 | 1120.7 |
| 20260502060344 | 3 | 216 | 3.2 | 6.4 | 0.00 | 0.71 | 0.00 | 100 | 1120.9 |
| 20260502055342 | 3 | 204 | 4.8 | 6.4 | 0.00 | 0.71 | 0.00 | 100 | 1121.0 |
| 20260502054342 | 3 | 212 | 3.2 | 3.2 | 0.00 | 0.71 | 0.00 | 100 | 1121.1 |
| 20260502053342 | 3 | 212 | 0.0 | 3.2 | 0.00 | 0.71 | 0.00 | 100 | 1121.2 |
| 20260502052342 | 3 | 225 | 0.0 | 0.0 | 0.00 | 0.71 | 0.00 | 100 | 1121.1 |
| 20260502051441 | 3 | 225 | 0.0 | 0.0 | 0.00 | 0.71 | 0.00 | 100 | 1121.2 |
| 20260502050541 | 3 | 225 | 0.0 | 0.0 | 0.00 | 0.71 | 0.00 | 100 | 1121.2 |
| 20260502044543 | 3 | 225 | 0.0 | 0.0 | 0.00 | 0.71 | 0.00 | 100 | 1121.2 |
| 20260502042726 | 3 | 225 | 3.2 | 4.8 | 0.00 | 0.71 | 0.00 | 100 | 1121.3 |
| 20260502041742 | 3 | 202 | 3.2 | 4.8 | 0.00 | 0.71 | 0.00 | 100 | 1121.5 |
| 20260502040824 | 3 | 199 | 4.8 | 9.7 | 0.00 | 0.71 | 0.00 | 100 | 1121.4 |
| 20260502035851 | 3 | 203 | 4.8 | 6.4 | 0.00 | 0.71 | 0.71 | 100 | 1121.5 |
| 20260502034851 | 4 | 242 | 4.8 | 8.0 | 0.00 | 0.71 | 0.71 | 100 | 1121.7 |
| 20260502033852 | 4 | 220 | 4.8 | 8.0 | 0.00 | 0.71 | 0.71 | 100 | 1121.5 |
| 20260502031850 | 4 | 225 | 1.6 | 3.2 | 0.00 | 0.71 | 0.71 | 100 | 1121.4 |
| 20260502030935 | 4 | 225 | 0.0 | 3.2 | 0.00 | 0.71 | 0.71 | 100 | 1121.2 |
| 20260502025952 | 4 | 225 | 0.0 | 1.6 | 0.00 | 0.71 | 0.71 | 100 | 1121.1 |
| 20260502024952 | 4 | 225 | 0.0 | 0.0 | 0.00 | 0.71 | 0.71 | 100 | 1121.1 |
| 20260502023951 | 4 | 225 | 0.0 | 1.6 | 0.00 | 0.71 | 0.71 | 100 | 1121.1 |
| 20260502023036 | 4 | 225 | 1.6 | 3.2 | 0.00 | 0.71 | 0.71 | 100 | 1121.2 |
| 20260502022052 | 4 | 202 | 1.6 | 4.8 | 0.00 | 0.71 | 0.71 | 100 | 1121.1 |
| 20260502021053 | 5 | 225 | 4.8 | 6.4 | 0.00 | 0.71 | 0.71 | 100 | 1121.1 |
| 20260502020051 | 5 | 225 | 4.8 | 6.4 | 0.00 | 0.71 | 0.71 | 100 | 1120.9 |
| 20260502015052 | 5 | 240 | 4.8 | 6.4 | 0.00 | 0.71 | 0.71 | 100 | 1121.1 |
| 20260502014151 | 5 | 247 | 1.6 | 3.2 | 0.00 | 0.71 | 0.71 | 100 | 1121.1 |
| 20260502013136 | 5 | 247 | 1.6 | 3.2 | 0.00 | 0.71 | 0.71 | 100 | 1120.9 |
| 20260502011250 | 5 | 225 | 1.6 | 1.6 | 0.00 | 0.71 | 0.71 | 100 | 1120.9 |
| 20260502005351 | 5 | 225 | 0.0 | 1.6 | 0.00 | 0.71 | 0.71 | 100 | 1120.8 |
| 20260502003451 | 5 | 247 | 1.6 | 3.2 | 0.00 | 0.71 | 0.71 | 100 | 1120.6 |
| 20260502002452 | 5 | 251 | 1.6 | 3.2 | 0.00 | 0.71 | 0.71 | 100 | 1120.4 |
| 20260502001549 | 5 | 270 | 0.0 | 3.2 | 0.00 | 0.71 | 0.71 | 100 | 1120.2 |
| 20260502000648 | 5 | 292 | 3.2 | 3.2 | 0.00 | 0.71 | 0.71 | 100 | 1120.1 |
| 20260501234650 | 6 | 292 | 4.8 | 6.4 | 0.00 | 0.71 | 0.71 | 100 | 1119.9 |
| 20260501233749 | 6 | 292 | 3.2 | 6.4 | 0.00 | 0.71 | 0.71 | 100 | 1119.9 |
| 20260501232750 | 6 | 292 | 3.2 | 6.4 | 0.00 | 0.71 | 0.71 | 100 | 1119.9 |
| 20260501231849 | 7 | 296 | 4.8 | 8.0 | 0.00 | 0.71 | 0.71 | 100 | 1120.0 |
| 20260501230850 | 6 | 312 | 4.8 | 9.7 | 0.00 | 0.71 | 0.71 | 100 | 1119.9 |
| 20260501224949 | 6 | 292 | 4.8 | 6.4 | 0.00 | 0.71 | 0.71 | 100 | 1120.1 |
| 20260501224034 | 6 | 309 | 1.6 | 6.4 | 0.00 | 0.71 | 0.71 | 100 | 1120.3 |
| 20260501223051 | 7 | 296 | 8.0 | 14.5 | 0.00 | 0.71 | 0.71 | 100 | 1120.1 |
| 20260501222052 | 7 | 323 | 3.2 | 3.2 | 0.00 | 0.71 | 0.71 | 100 | 1120.1 |
| 20260501221050 | 6 | 305 | 6.4 | 12.9 | 0.00 | 0.71 | 0.71 | 100 | 1119.8 |
| 20260501220051 | 6 | 299 | 8.0 | 11.3 | 0.00 | 0.71 | 0.71 | 100 | 1119.5 |
| 20260501215150 | 6 | 300 | 6.4 | 12.9 | 0.00 | 0.71 | 0.71 | 100 | 1119.6 |
| 20260501214150 | 6 | 316 | 3.2 | 6.4 | 0.00 | 0.71 | 0.71 | 100 | 1119.6 |
| 20260501213250 | 7 | 296 | 8.0 | 12.9 | 0.00 | 0.71 | 0.71 | 100 | 1119.6 |
| 20260501212333 | 7 | 300 | 6.4 | 11.3 | 0.00 | 0.71 | 0.71 | 100 | 1119.8 |
| 20260501211349 | 7 | 314 | 3.2 | 6.4 | 0.00 | 0.71 | 0.71 | 100 | 1119.5 |
| 20260501210351 | 7 | 322 | 4.8 | 8.0 | 0.00 | 0.71 | 0.71 | 100 | 1119.2 |
| 20260501205450 | 7 | 339 | 8.0 | 12.9 | 0.00 | 0.71 | 0.71 | 100 | 1119.3 |
| 20260501204549 | 6 | 320 | 3.2 | 9.7 | 0.00 | 0.71 | 0.71 | 100 | 1119.1 |
| 20260501203549 | 6 | 338 | 4.8 | 9.7 | 0.00 | 0.71 | 0.71 | 100 | 1119.0 |
| 20260501202623 | 5 | 337 | 8.0 | 12.9 | 0.00 | 0.71 | 0.71 | 100 | 1118.9 |
| 20260501201552 | 5 | 340 | 4.8 | 11.3 | 0.03 | 0.71 | 0.71 | 100 | 1118.6 |
| 20260501200552 | 5 | 326 | 11.3 | 20.9 | 0.03 | 0.71 | 0.71 | 100 | 1118.4 |
| 20260501195633 | 5 | 305 | 3.2 | 6.4 | 0.03 | 0.71 | 0.71 | 100 | 1118.5 |
| 20260501193652 | 5 | 324 | 1.6 | 9.7 | 0.05 | 0.71 | 0.71 | 100 | 1118.3 |
| 20260501193551 | 5 | 296 | 4.8 | 12.9 | 0.05 | 0.71 | 0.71 | 100 | 1118.3 |
| 20260501192650 | 5 | 343 | 8.0 | 17.7 | 0.05 | 0.71 | 0.71 | 100 | 1118.1 |
| 20260501191750 | 5 | 308 | 8.0 | 11.3 | 0.05 | 0.69 | 0.69 | 100 | 1118.1 |
| 20260501190751 | 5 | 309 | 3.2 | 8.0 | 0.05 | 0.69 | 0.69 | 100 | 1118.1 |
| 20260501185751 | 5 | 314 | 6.4 | 11.3 | 0.08 | 0.69 | 0.69 | 100 | 1118.0 |
| 20260501184751 | 5 | 310 | 6.4 | 9.7 | 0.08 | 0.66 | 0.66 | 100 | 1117.9 |
| 20260501183749 | 5 | 323 | 8.0 | 12.9 | 0.13 | 0.66 | 0.66 | 100 | 1117.7 |
| 20260501182836 | 5 | 321 | 4.8 | 8.0 | 0.18 | 0.66 | 0.66 | 100 | 1117.5 |
| 20260501181850 | 5 | 341 | 8.0 | 17.7 | 0.18 | 0.66 | 0.64 | 100 | 1117.3 |
| 20260501180935 | 5 | 336 | 4.8 | 11.3 | 0.18 | 0.66 | 0.64 | 100 | 1117.3 |
| 20260501180033 | 5 | 348 | 11.3 | 17.7 | 0.15 | 0.64 | 0.61 | 100 | 1117.2 |
| 20260501175050 | 4 | 331 | 6.4 | 11.3 | 0.15 | 0.61 | 0.58 | 100 | 1117.2 |
| 20260501174148 | 4 | 312 | 4.8 | 9.7 | 0.15 | 0.58 | 0.53 | 100 | 1117.1 |
| 20260501173151 | 4 | 321 | 6.4 | 12.9 | 0.08 | 0.51 | 0.48 | 100 | 1117.0 |
| 20260501172249 | 5 | 323 | 9.7 | 14.5 | 0.08 | 0.48 | 0.46 | 100 | 1117.1 |